FENGYUN 1C DEB, 37444

Orbit data source: Space-Track

FENGYUN 1C DEB, 37444 is space debris in SSO originally from a launch on Mon, 10 May 1999 UTC launched from the Taiyaun Space Center, China (TSC). Fengyun 1C debris stems from the Chinese weather satellite Fengyun-1C, which was intentionally destroyed by a Chinese anti-satellite missile in 2007. This event dramatically increased the amount of space debris, with thousands of trackable fragments posing hazards to satellites and human spaceflight. The Fengyun 1C debris cloud has become a focal point in discussions about space sustainability and the need for international regulations to prevent the creation of new debris.

Loading next visibility...
Identifier
37444, 1999-025EHN
Orbit
SSO
Country
Flag of CNCN / PRC
Related business
Manufacturer
Unknown
Mission
Spacecraft
Bus & Motor
Unknown
Mass
Unknown
Launch date (UTC)
1999-05-10 (27 years ago)
Launch vehicle
Unknown
Launch site
Taiyaun Space Center, China (TSC)
Object type
Payload
Rocket body
Debris
Shape & HBR
Unknown shape, 0.1 m
Radar Cross Section
Small (<0.1 m²)

Expand to show TLE details & history
Last TLE update: 2 days ago

TLE from 2 days ago
0 FENGYUN 1C DEB
1 37444U 99025EHN 26253.58109994  .00001559  00000-0  29186-3 0  9999
2 37444  99.0804 359.8967 0237854 255.5411 101.9283 14.50050309690885
Epoch: 2026-09-10T13:56Z
TLE epoch observation values (Epoch: 2026-09-10T13:56:47.034Z)
Latitude
-0.00001°
Longitude
161.08397°
Altitude
767.176 km
Speed
7.45 km/s
True Right ascension
23h 59m 35s
True Declination
0° 00' 00"
Sunlit
Object was in full shadow at epoch
Visualization orbit readout
Latitude
Unknown
Longitude
Unknown
Altitude
Unknown
Speed
Unknown
Apparent Right ascension
Unknown
Apparent Declination
Unknown
Sunlit
N/A
Visualization observer readout
Local Sidereal Time
05:38:36
Azimuth
Unknown
Elevation
Unknown
Doppler factor
Unknown
Orbital elements
Apogee altitude
891.513 km
Perigee altitude
553.724 km
Semi-major axis
7,100.756 km
Eccentricity
0.02379
Inclination
99.0804°
RAAN
359.8967°
Arg. of periapsis
255.5411°
True anomaly
104.57782°
Mean anomaly
101.9283°
Eccentric anomaly
103.2548°
Mean motion
3.62732 °/min
Orbital period
99.25 mins
BSTAR
0.00029186
Loading maneuver chart data...
Computing Atmospheric mass density...
Loading historical data...
Loading historical data...
Loading historical data...
Loading historical data...
Loading historical data...
Loading historical data...
Loading historical data...

Documentation

Showing up to 5 results
|